SBCT Airport Information

Runway Information
Runway 11 Length 5906 ft width 148 ft
Elevation 0 ft Threshold 0 ft Heading 0
Runway 29 Length 5906 ft Width 148 ft
Elevation 0 ft Threshold 0 ft Heading 0
Runway 15 Length 7267 ft width 148 ft
Elevation 0 ft Threshold 0 ft Heading 0
Runway 33 Length 7267 ft Width 148 ft
Elevation 0 ft Threshold 0 ft Heading 0
Airport Frequencies
Type APP Name CURITIBA A Frequency 119.95 MHZ
Type ATIS Name ATIS Frequency 127.8 MHZ
Type GND Name GND Frequency 121.9 MHZ
Type TWR Name CURITIBA T Frequency 118.55 MHZ
Airport Navaids
Type NDB Name Curitiba Frequency 390 KHZ
Type VOR-DME Name Curitiba Frequency 116500 KHZ
Type NDB Name Pinhais Frequency 255 KHZ
Airport Weather Information & NOTAM
ADDS - METARS form results

(0132 UTC 19 August 2018)
 
METAR text: SBCT 190100Z 08007KT 9999 BKN007 13/12 Q1026
Conditions at: SBCT (CURITIBA/AFONSO , BR) observed 0100 UTC 19 August 2018
Temperature: 13.0°C (55°F)
Dewpoint: 12.0°C (54°F) [RH = 94%]
Pressure (altimeter): 30.30 inches Hg (1026.0 mb)
Winds: from the E (80 degrees) at 8 MPH (7 knots; 3.6 m/s)
Visibility: 6 or more miles (10+ km)
Ceiling: 700 feet AGL
Clouds: broken clouds at 700 feet AGL
Weather: no significant weather observed at this time